Regional Weather Roundup
Issued by NWS Jackson, KY

Home | Current Version | Previous Version | Graphics & Text | Print | Product List | Glossary On
Versions: 1 2 3 4 5 6 7 8 9 10 11 12 13 14 15 16 17 18 19 20 21 22 23 24 25 26 27 28 29 30 31 32 33 34 35 36 37 38 39 40 41 42 43 44 45 46 47 48 49 50
000
ASUS43 KJKL 020910
RWRJKL

EAST KENTUCKY HOURLY WEATHER ROUNDUP
NATIONAL WEATHER SERVICE JACKSON KY
500 AM EDT THU JUL 02 2015

NOTE: "FAIR" INDICATES FEW OR NO CLOUDS BELOW 12,000 FEET WITH
NO SIGNIFICANT WEATHER AND/OR OBSTRUCTIONS TO VISIBILITY.

* THESE REPORTS ARE NOT UNDER NWS QUALITY CONTROL AND MAY NOT
  REPORT WEATHER SUCH AS PRECIPITATION AND FOG.

KYZ079-080-083-085-087-088-110-112-115-119-120-021000
...EASTERN KENTUCKY...

CITY           SKY/WX    TMP DP  RH WIND       PRES   REMARKS
JACKSON        CLOUDY    67  65  93 CALM      29.94F
LONDON         CLOUDY    66  61  84 CALM      29.95R HAZE
MONTICELLO*    MOCLDY    66  66 100 CALM      29.97R
HAZARD APT*    CLOUDY    68  68 100 SW6       29.94F FOG
BLACK MTN*       N/A     61  61 100 SW6         N/A
PIKEVILLE APT* FOG       64  64 100 CALM      29.95F VSB 1
MOREHEAD APT*  CLOUDY    68  66  94 SE3       29.92F FOG
$$

KYZ035-036-041-042-044-050-067-078-099-021000
...CENTRAL KENTUCKY...

CITY           SKY/WX    TMP DP  RH WIND       PRES   REMARKS
FLEMING/MASON* FOG       68  68 100 CALM      29.91F VSB 3/4
LEXINGTON      CLOUDY    69  67  93 SW6       29.91R FOG
FRANKFORT      CLOUDY    69  68  96 S3        29.89R FOG
$$

KYZ091>093-OHZ055-061-077-WVZ005-015-034-035-042-021000
...SOUTHERN OHIO/WEST VIRGINIA...

CITY           SKY/WX    TMP DP  RH WIND       PRES   REMARKS
COVINGTON      CLOUDY    69  66  90 CALM      29.89F FOG
COLUMBUS       MOCLDY    63  60  90 N3        29.92S
DAYTON         CLOUDY    65  60  84 N6        29.91F
WILMINGTON     MOCLDY    63  60  90 NE6       29.89F
HUNTINGTON     FOG       66  66 100 CALM      29.90F VSB 1
CHARLESTON     MOCLDY    67  65  93 CALM      29.91S FOG
PINEVILLE*     CLOUDY    67  67 100 MISG      30.00
BECKLEY        HVY RAIN  64  62  93 SW5       29.97F FOG
BLUEFIELD      CLOUDY    66  59  78 W8        30.00S
$$

VAZ002-007-008-TNZ017-027-036-066-071-021000
...SOUTHWEST VIRGINIA/EAST TENNESSEE...

CITY           SKY/WX    TMP DP  RH WIND       PRES   REMARKS
BRISTOL        CLOUDY    67  65  93 SW7       29.99S
KNOXVILLE      CLOUDY    67  64  90 SW8       29.96F
OAK RIDGE      MOCLDY    69  65  86 CALM      29.98F
CROSSVILLE     CLOUDY    67  64  90 S5        30.00S
NASHVILLE      CLOUDY    71  71 100 S5        29.91S
$$

...KEY TO REMARKS...
VSB - VISIBILITY IN MILES
WCI - WIND CHILL INDEX
HX  - HEAT INDEX

$$



USA.gov is the U.S. government's official web portal to all federal, state and local government web resources and services.